User: anonymous   Login
Location: Cronhütte
(48.9135°N, 9.6869°E)
Time: 21:31:23
(UTC+00:00)
Language:

SL-8 R/B - Orbit

View from above orbital plane
View from above orbital plane
View from above satellite
View from above satellite

Ground track
Ground track

The orbit data is extracted from the following two-line orbital elements,

1 33066U 08031G   24197.53897274  .00000887  00000-0  17372-3 0  9994
2 33066  48.4423 249.9695 0007973 254.2035 105.7997 14.71369507863015
Epoch (UTC): 15 July 2024 12:56:07
Eccentricity: 0.0007973
inclination: 48.4423°
perigee height: 651 km
apogee height: 662 km
right ascension of ascending node: 249.9695°
argument of perigee: 254.2035°
revolutions per day: 14.71369507
mean anomaly at epoch: 105.7997°
orbit number at epoch: 86301

The dashed part of the orbit path shows where the satellite is in the earth's shadow,  

DLR